Theta_e
326 327 325 326 324 331 341 346 351 347 351 359 357 357 360 359 360 364 362 356 358 365 365 364 365 363 359 358 362 365 362 352 344 346 347 345 344 342 341 341 341 341 340 340 343 346 347 349 350 350 351 352 353 353 353 352 350 349 349 349 350 350 349 349 348 347 347 348 347 347 347 347 347 348 350 352 351 350 349 349 350 352 353 351 348 347
326 326 327 329 327 327 326 331 336 331 341 358 358 357 358 358 361 362 361 357 358 365 364 361 364 363 359 358 362 367 368 357 346 345 346 346 344 343 342 341 341 341 341 343 345 346 348 350 350 351 351 351 352 352 352 352 351 349 349 350 351 350 350 349 349 349 349 349 349 347 347 347 346 347 349 351 352 352 352 352 352 353 354 350 347 346
325 326 328 328 324 324 322 323 325 327 342 357 356 356 355 359 363 360 360 357 356 365 365 360 362 363 361 360 362 367 369 368 362 351 344 345 345 343 343 341 340 342 346 347 346 347 349 350 350 350 350 351 351 352 352 351 351 350 349 349 350 350 350 350 349 350 350 350 349 348 347 347 347 348 349 350 352 353 354 354 353 353 353 349 346 346
322 325 328 325 322 322 322 322 322 329 348 358 354 352 353 358 358 355 360 359 357 362 362 360 362 363 363 361 361 364 367 373 374 362 350 346 345 344 343 341 340 343 348 349 347 348 349 349 351 350 350 351 351 352 352 351 350 350 350 348 349 350 349 350 350 350 350 350 350 349 348 348 348 348 349 350 352 353 353 354 354 353 352 350 349 349
323 325 324 321 321 322 321 322 320 324 341 355 352 349 354 360 360 359 361 360 359 360 360 360 358 359 363 362 363 365 365 369 372 365 355 351 348 344 344 342 341 345 348 349 348 348 348 349 350 350 350 351 351 352 352 352 351 350 350 349 349 349 349 350 350 350 350 350 350 349 349 349 349 349 349 350 351 353 353 353 354 353 352 352 353 354
322 322 319 319 321 320 318 321 321 319 331 347 351 349 354 360 365 366 362 360 358 357 360 359 352 353 360 362 363 365 366 367 370 364 354 355 356 347 344 343 341 345 348 348 349 348 348 350 350 351 351 351 352 352 352 352 351 350 350 349 349 349 349 350 350 350 350 350 349 349 349 348 348 349 349 350 351 353 352 352 354 352 351 353 355 356
321 320 318 319 321 319 317 320 322 319 326 339 352 351 353 359 365 363 358 357 355 355 361 360 354 352 355 359 361 363 367 367 369 366 357 358 361 351 345 344 342 344 349 348 348 348 348 349 350 351 351 352 352 352 353 352 351 351 350 350 350 349 350 350 349 349 349 349 349 349 348 348 348 348 348 349 350 351 351 351 354 352 350 353 355 356
319 319 319 320 319 318 318 317 320 322 324 333 350 355 356 360 363 360 358 358 356 356 360 361 359 355 352 356 359 361 365 367 366 367 362 360 362 355 345 343 343 344 348 349 348 349 348 349 350 351 352 352 352 352 353 353 352 352 351 351 351 350 351 350 349 349 348 349 349 348 348 347 347 347 347 348 349 350 350 350 352 352 350 352 355 356
318 318 319 320 319 318 318 317 321 323 323 333 350 357 357 360 361 359 357 358 357 354 355 357 357 353 352 359 364 363 363 365 365 365 363 361 362 360 350 343 343 344 348 349 348 349 348 349 350 351 352 352 352 353 353 354 353 352 351 351 351 351 351 350 349 349 348 349 349 348 348 347 347 347 346 347 348 349 349 349 350 350 350 353 355 356
319 318 319 318 317 319 319 320 320 320 329 342 352 354 354 354 355 354 354 354 355 353 352 355 354 351 353 358 363 364 360 360 363 362 362 361 360 360 355 348 344 344 348 348 348 349 348 349 350 350 352 352 352 353 353 354 353 352 352 352 352 352 351 349 349 350 349 348 349 348 348 348 347 347 346 346 348 348 348 348 348 348 349 353 355 357
320 320 323 319 319 320 318 320 319 326 341 350 351 351 350 351 350 351 352 351 351 351 351 351 352 352 352 355 357 359 359 358 360 360 360 362 360 360 358 352 345 343 347 349 349 349 349 350 350 350 352 352 353 353 353 354 354 354 353 353 353 351 350 350 351 352 351 348 348 349 349 348 348 348 347 347 347 348 348 347 347 348 350 353 355 357
320 318 322 323 325 320 318 327 331 337 348 353 354 351 348 351 351 351 352 352 350 351 352 351 354 353 350 354 358 357 357 357 358 359 359 361 361 360 359 354 347 343 346 350 350 349 350 350 350 351 352 353 353 354 354 354 354 354 354 354 354 352 350 351 352 354 353 349 349 349 349 349 348 348 348 347 347 348 348 348 349 349 351 353 355 356
321 321 321 323 328 323 323 337 343 345 352 355 353 348 347 349 351 351 350 350 350 351 353 353 354 354 350 353 359 360 358 357 357 355 356 358 358 360 360 354 348 346 346 350 352 351 351 350 351 352 352 353 354 354 354 355 354 354 355 354 354 353 352 353 354 355 354 352 352 350 349 348 347 347 347 347 347 347 347 348 351 351 351 354 355 355
319 322 321 318 324 324 328 341 343 346 355 355 348 342 346 349 350 353 350 348 349 349 351 354 354 353 351 354 359 360 358 356 355 354 354 356 356 359 363 358 349 346 348 351 352 351 351 351 351 352 353 353 354 354 355 355 355 355 355 355 354 354 354 354 355 355 355 354 353 350 348 347 347 347 347 347 347 348 347 348 350 350 351 353 354 354
315 318 322 319 321 323 328 341 346 349 355 359 355 345 342 344 346 350 350 349 351 350 351 353 353 352 353 358 362 361 358 357 355 354 354 355 355 357 363 363 353 346 349 352 352 352 352 351 352 352 353 353 353 355 355 355 355 355 355 355 355 355 355 355 355 355 355 355 353 351 348 347 347 347 347 347 348 348 348 348 349 350 350 351 352 353
314 317 326 322 323 326 326 335 344 348 349 350 350 342 337 342 348 346 344 347 350 352 353 352 352 357 360 363 366 364 361 358 356 356 357 356 356 355 359 363 359 349 348 352 353 352 352 351 352 353 353 354 354 354 355 355 355 355 355 355 355 355 355 356 356 356 355 355 354 352 349 348 349 348 348 348 348 349 349 348 349 349 350 350 351 352
315 319 329 325 325 329 327 333 339 342 347 340 334 336 338 343 352 346 341 345 346 346 348 348 352 358 357 356 363 366 363 359 358 358 358 357 356 355 354 358 359 352 348 351 353 352 352 351 351 352 353 354 354 354 355 355 355 355 355 354 354 355 355 356 356 356 356 356 355 353 351 351 351 350 350 349 349 350 349 348 349 350 350 350 350 351
318 318 329 326 324 327 326 331 334 333 339 334 326 333 336 337 346 349 346 347 345 342 344 347 353 355 349 349 360 367 365 361 358 358 359 358 356 355 353 353 356 353 348 350 353 351 351 352 351 352 353 353 354 355 356 355 355 355 355 354 354 355 356 356 356 357 356 356 355 354 353 353 353 352 352 352 351 350 349 348 349 350 350 350 350 351
320 316 327 331 324 326 327 329 328 325 330 331 327 329 332 333 335 337 341 345 343 343 345 346 349 351 348 351 362 367 366 363 359 358 360 358 356 355 352 353 355 354 350 351 353 352 350 351 351 351 352 354 354 354 356 356 356 356 355 354 354 354 356 357 357 357 356 355 354 354 353 354 354 353 352 353 353 351 349 349 350 351 350 351 351 351
326 318 323 332 328 324 326 330 326 322 325 328 327 325 329 338 339 335 337 342 344 345 346 344 343 348 354 360 367 366 364 362 359 359 360 357 356 355 351 353 355 353 352 351 352 355 353 350 350 351 352 354 355 354 356 356 356 356 355 355 356 355 357 357 357 357 356 355 354 354 354 354 355 355 354 354 353 351 351 350 350 351 351 352 353 353
330 322 319 330 336 324 321 329 329 326 323 322 322 320 322 328 333 335 335 337 345 349 348 344 341 349 361 366 370 366 360 361 358 358 360 357 356 355 352 355 355 353 353 353 353 355 354 349 347 351 352 353 356 355 356 356 356 356 356 356 356 356 357 358 357 357 356 356 356 355 354 354 355 356 356 354 353 352 352 352 352 352 352 352 353 354
325 328 324 325 326 321 323 328 328 329 328 325 323 322 325 327 330 335 333 331 341 347 347 345 342 353 363 364 369 367 360 360 359 357 359 358 356 356 357 358 354 352 355 357 357 353 350 347 347 349 351 353 356 356 356 357 357 357 357 357 356 357 357 358 357 358 357 356 358 357 354 354 356 357 356 355 355 354 354 354 353 353 352 353 353 353
333 339 330 322 322 323 326 327 324 324 325 327 326 324 328 334 337 338 335 332 334 339 345 343 338 349 363 362 367 367 359 359 359 358 360 358 357 358 359 358 355 355 357 361 363 355 346 346 347 348 350 352 354 356 356 357 357 357 357 357 357 357 357 357 357 357 357 358 359 359 356 355 356 357 357 357 356 356 355 355 355 355 354 353 353 352
338 336 327 330 344 342 330 330 329 325 326 327 325 324 324 326 335 343 344 343 339 336 340 338 334 346 361 361 363 363 359 360 360 359 361 360 358 357 355 355 355 357 360 362 363 356 347 345 346 347 348 350 352 354 356 357 357 358 358 357 358 357 356 356 357 357 357 358 360 359 358 357 357 358 359 358 357 356 356 356 356 355 354 353 353 353
328 332 331 333 344 344 334 334 331 326 330 330 325 327 327 324 327 334 340 344 339 337 339 337 338 349 357 358 362 361 360 363 361 358 360 361 358 355 353 353 353 357 361 362 362 359 352 348 347 346 347 348 350 351 352 354 355 357 359 358 358 357 357 356 356 357 357 358 359 359 359 358 359 360 360 359 357 356 356 357 356 356 355 354 354 353
325 335 342 336 334 331 327 327 324 322 329 331 330 335 339 335 325 323 330 332 331 335 338 336 342 355 360 360 361 360 360 363 363 359 359 360 357 354 354 353 352 354 358 360 360 358 355 351 348 347 347 347 348 350 352 351 351 355 358 359 358 357 357 356 356 356 356 357 358 359 359 360 360 360 359 358 357 356 357 357 356 356 355 355 355 354
339 337 346 347 338 329 327 332 334 330 332 335 338 342 347 346 337 329 330 330 335 340 338 342 351 358 366 367 361 359 361 363 364 361 360 360 357 355 354 353 353 353 355 358 359 357 355 352 349 347 347 348 348 349 351 350 350 351 353 357 359 358 357 357 357 357 356 357 358 358 358 359 359 359 358 357 356 357 358 357 357 356 355 355 355 355
348 334 337 342 333 328 333 339 340 340 338 339 341 344 349 349 345 339 331 330 341 337 332 350 361 354 362 370 361 359 361 360 362 361 360 361 358 355 354 354 354 353 354 357 358 356 355 354 351 348 347 348 348 348 349 350 351 351 350 351 355 358 358 357 356 357 357 357 358 358 357 357 357 358 357 356 356 356 358 357 356 356 354 354 354 354
345 332 330 330 326 329 334 336 340 343 340 339 340 342 348 349 347 347 342 340 343 333 331 355 365 355 361 366 360 359 359 358 360 359 358 359 359 356 355 354 355 354 354 356 357 355 354 353 351 348 347 348 347 348 349 349 351 352 351 350 350 353 357 357 356 356 357 357 358 358 357 357 358 358 357 356 356 357 358 357 357 356 354 353 354 355
338 331 331 330 328 329 332 335 340 341 338 338 338 339 344 349 347 347 348 350 350 346 348 361 365 360 360 359 359 360 357 356 358 357 357 359 358 357 356 356 356 354 353 354 354 354 354 353 350 347 348 348 347 347 348 348 349 350 351 352 352 351 353 357 358 356 357 358 357 357 358 358 359 359 357 356 356 357 357 357 357 356 355 354 355 355
331 326 334 343 336 328 331 336 337 339 339 338 337 336 341 348 350 349 349 352 355 356 355 358 362 362 356 354 357 356 354 356 356 355 357 357 355 357 357 357 357 355 354 353 352 354 354 352 350 348 348 348 346 347 347 347 349 350 350 352 353 351 350 354 357 357 356 357 357 356 357 357 358 358 357 357 357 357 357 356 356 356 355 355 354 354
331 326 334 343 337 330 331 331 334 342 343 339 338 336 339 347 349 348 349 349 351 355 356 354 356 359 356 354 355 354 354 356 355 355 357 354 354 356 356 357 356 354 354 353 352 353 353 351 349 348 348 348 347 347 348 348 349 349 350 350 351 351 349 351 356 356 356 357 357 357 356 355 356 356 355 356 356 356 356 355 355 354 353 354 354 354
336 335 331 333 336 335 331 330 339 347 345 343 343 336 339 348 348 346 348 348 347 351 356 356 354 355 355 354 355 356 356 356 355 355 355 354 354 354 354 355 354 352 352 351 351 353 352 349 348 347 348 348 348 348 348 348 348 348 349 349 350 351 350 351 353 355 356 356 356 356 355 354 354 355 354 354 354 354 354 353 352 352 352 353 353 353
345 345 336 335 336 332 330 337 344 348 346 348 350 340 338 346 347 346 346 345 345 348 351 355 355 354 353 353 355 356 354 352 351 350 350 352 352 352 351 350 349 349 348 347 348 349 347 346 347 347 347 348 348 348 347 347 347 347 348 348 350 350 350 349 350 352 353 354 354 354 353 352 353 354 354 353 352 351 351 351 350 350 350 351 352 353
343 340 334 338 335 329 335 341 338 341 348 354 352 344 338 342 346 347 345 342 343 346 348 353 355 353 352 352 351 350 348 346 346 345 346 347 347 348 348 347 347 347 346 345 346 344 341 342 346 348 347 347 347 347 346 346 347 347 347 348 348 348 349 349 348 347 350 352 353 353 352 352 352 351 351 352 351 350 349 350 351 352 351 352 352 351
334 332 330 332 328 325 333 337 336 340 348 351 349 342 339 342 345 346 347 345 343 343 347 351 352 350 350 348 347 347 347 345 345 345 344 344 344 344 345 344 343 343 343 343 342 340 338 340 344 347 348 347 347 346 347 347 348 347 347 347 347 348 348 348 346 344 346 350 351 352 352 352 351 350 350 352 352 350 350 349 350 351 351 351 351 351
335 335 329 323 322 328 335 337 339 341 340 344 346 337 333 337 338 339 346 347 342 341 343 347 347 346 346 346 345 346 346 346 347 347 344 342 342 342 341 341 340 340 340 340 338 337 338 340 342 345 346 347 347 347 348 348 348 348 347 346 347 348 347 347 346 343 344 348 350 351 351 351 350 349 350 351 351 351 351 349 348 349 350 350 350 350
329 331 331 322 321 335 344 341 340 341 340 345 346 336 331 334 334 337 344 346 343 340 341 345 347 345 344 345 344 346 350 352 351 347 342 339 339 339 339 339 339 339 339 339 338 337 338 339 340 341 344 347 347 347 348 347 348 348 347 347 347 348 348 347 347 346 346 348 350 350 350 350 350 348 348 349 349 350 351 350 349 350 350 350 349 348
330 337 344 333 324 334 343 341 341 342 342 344 344 338 335 335 335 338 343 347 346 342 341 344 345 344 345 346 345 349 359 365 357 346 342 341 339 338 338 338 338 338 338 338 339 338 337 339 340 340 343 346 347 346 347 348 348 348 347 347 347 348 348 348 348 348 348 348 349 350 350 350 349 348 348 349 350 350 350 350 349 350 350 349 350 348
346 347 346 336 333 341 346 343 341 341 340 340 341 340 338 335 336 340 345 348 348 343 341 344 346 346 347 347 346 351 362 368 360 347 341 340 339 337 337 337 337 337 337 337 338 338 338 339 340 340 342 343 343 343 345 346 347 345 345 345 346 347 347 346 346 347 348 348 348 348 349 349 349 348 349 349 349 348 348 349 349 349 349 349 349 349
348 346 341 338 340 347 349 343 338 339 342 342 341 342 340 335 335 342 347 348 347 343 341 342 346 347 348 349 350 351 353 354 350 344 340 339 338 337 336 336 337 336 337 337 337 337 337 338 338 339 339 340 341 341 342 343 343 342 342 343 344 343 343 344 346 347 348 348 347 346 347 348 348 348 349 348 348 348 348 348 349 349 349 349 348 348
337 336 338 342 340 341 347 345 339 338 340 339 339 339 338 335 339 346 347 345 345 344 341 340 342 345 347 349 348 346 344 343 341 340 339 339 339 336 334 335 336 336 336 336 336 336 336 336 337 337 337 338 339 340 341 341 340 340 341 341 339 339 341 344 346 346 346 346 345 345 345 346 346 347 347 346 346 346 347 347 347 347 347 346 345 344
333 333 337 340 337 338 345 344 337 336 337 336 339 341 340 340 344 346 344 343 343 343 341 340 341 342 343 346 345 342 342 342 340 339 338 338 337 334 332 332 333 332 333 335 334 335 335 334 335 335 336 337 338 339 340 340 339 338 338 337 336 338 341 343 344 344 344 343 343 343 344 344 344 345 345 344 344 345 345 344 345 344 344 343 342 339
334 336 340 340 337 342 351 346 339 340 341 340 341 343 342 341 341 342 346 347 344 341 341 341 342 341 341 342 342 340 340 341 340 339 337 336 334 331 328 328 328 329 332 333 333 334 333 333 333 333 334 335 336 337 339 339 338 337 335 334 336 338 340 340 341 341 340 340 339 340 340 341 342 342 342 341 341 342 342 342 343 342 341 340 339 335
331 333 339 340 336 338 346 346 341 343 342 339 340 341 339 339 339 341 345 346 343 342 342 341 341 341 340 339 338 338 339 339 340 339 337 335 332 328 326 326 327 329 331 332 332 333 333 332 332 333 333 334 335 336 337 337 336 335 334 333 334 337 339 339 339 338 337 336 335 335 336 338 338 338 339 340 341 341 340 339 338 337 335 335 333 330
332 333 340 343 338 336 341 341 339 340 339 339 340 340 339 340 340 340 342 344 343 342 340 339 339 340 339 337 337 338 337 337 338 338 337 336 332 327 326 326 327 329 330 331 331 332 332 332 332 332 332 332 334 335 335 335 335 335 334 332 331 332 334 335 335 334 333 332 331 331 331 331 331 331 333 335 337 338 336 333 332 330 330 330 329 328
334 336 342 343 339 340 344 341 338 336 336 338 341 340 339 340 339 339 340 341 340 339 339 338 338 339 337 335 335 336 336 335 336 335 334 335 333 328 326 326 327 327 328 329 329 330 331 331 330 330 330 330 332 333 334 334 334 335 335 334 330 329 329 329 329 328 328 329 329 328 328 328 327 327 328 329 331 332 331 331 331 331 331 331 330 330
334 336 341 341 340 343 343 338 335 335 335 338 340 341 341 339 338 337 338 337 338 339 338 336 336 337 336 334 334 335 335 335 335 334 333 332 330 326 325 326 326 327 327 327 328 329 329 329 329 329 329 329 330 331 332 333 333 333 334 334 333 332 330 330 329 329 329 330 331 331 331 331 330 330 330 331 332 333 333 333 333 333 333 333 333 333
340 339 338 339 339 338 336 334 334 337 337 337 337 339 339 337 337 337 337 337 338 338 338 336 334 333 332 332 333 335 337 336 333 332 334 333 328 325 325 326 326 326 326 326 326 325 326 326 327 327 327 328 328 329 330 331 332 331 332 332 332 332 332 332 333 333 333 332 332 332 332 332 332 332 332 333 333 333 333 332 331 331 331 332 333 334
344 342 336 339 341 340 340 338 337 339 340 337 336 337 337 335 336 337 337 337 338 337 338 338 336 332 330 329 330 334 340 338 331 328 330 330 326 324 325 325 326 327 327 327 326 325 325 325 325 325 325 326 326 326 326 328 329 330 331 331 331 331 331 331 331 332 333 332 331 330 330 331 332 332 332 332 332 331 330 329 328 329 329 329 330 331
346 341 338 345 348 343 342 340 338 341 343 337 334 337 337 335 336 338 337 338 337 335 335 337 338 336 334 331 329 331 336 335 329 327 328 326 324 325 326 326 326 326 327 327 327 326 325 324 323 323 324 324 324 325 325 325 326 327 328 329 330 330 330 330 330 331 331 331 330 329 328 328 330 331 331 331 330 329 328 326 324 324 324 324 324 325
Wind_Speed
3 3 2 4 6 6 8 8 7 5 4 5 3 3 4 4 2 2 2 2 3 3 2 3 5 4 0 2 2 3 3 5 10 11 10 10 8 9 8 8 9 9 9 15 23 24 24 25 24 24 23 23 23 23 23 23 22 22 21 22 22 20 19 18 19 18 17 16 15 15 17 17 17 16 15 13 12 12 11 10 9 7 5 3 3 5
3 3 5 7 8 9 8 7 6 4 3 4 4 4 4 3 2 3 3 5 4 2 1 3 5 3 2 3 4 1 1 6 10 11 12 10 9 9 9 9 9 7 7 12 17 19 22 23 24 25 24 25 25 24 24 24 24 23 22 22 22 21 21 20 19 18 17 16 16 16 17 18 17 17 17 15 14 12 11 10 9 7 4 2 3 6
1 3 8 9 7 6 5 4 6 5 4 5 4 4 4 3 3 4 5 6 3 0 2 4 6 5 2 3 5 2 2 4 5 9 13 11 10 9 9 10 9 7 8 10 12 16 21 22 24 25 24 25 26 26 26 25 25 24 23 22 22 22 21 20 19 18 17 15 15 15 16 18 17 17 16 15 14 13 12 11 9 7 4 3 5 7
2 5 8 7 5 5 4 4 6 4 3 4 4 4 4 5 5 2 5 7 0 1 3 4 4 3 1 3 6 5 4 3 3 5 10 10 10 12 12 11 10 9 10 11 11 14 18 21 22 23 23 24 24 24 25 26 26 25 25 24 23 23 22 20 19 18 16 14 14 14 14 16 15 15 15 14 14 14 13 11 9 7 6 6 7 7
6 8 5 1 4 6 4 3 5 4 2 3 6 6 5 8 5 3 7 8 2 2 3 6 2 1 3 5 6 4 2 2 2 3 7 8 8 10 10 10 11 12 12 12 11 12 16 19 21 23 24 24 25 25 26 27 27 27 27 26 25 24 22 20 19 18 17 15 14 15 15 16 14 13 15 16 15 14 14 13 10 8 7 8 9 7
8 7 2 1 3 5 4 4 4 5 3 3 6 8 8 11 7 9 12 9 3 1 3 6 3 2 5 8 8 4 2 3 2 2 9 9 6 7 9 8 9 11 13 13 13 13 16 20 21 22 23 24 25 26 28 28 28 27 28 27 26 25 23 21 20 20 19 17 15 16 16 17 16 15 16 18 17 16 16 14 11 8 8 10 10 7
5 3 4 4 5 4 4 4 5 6 5 2 6 9 8 10 9 13 15 8 3 3 4 5 4 2 4 8 9 5 5 6 3 3 8 9 7 8 9 8 7 11 12 12 13 14 16 19 20 21 23 25 25 26 27 27 27 28 28 28 27 27 25 23 23 22 21 18 15 16 18 18 18 17 18 18 16 15 15 13 11 8 8 11 9 7
3 2 4 6 5 4 4 4 6 8 6 4 6 9 10 11 11 14 12 5 2 2 2 2 1 2 3 6 9 7 6 6 5 6 6 7 8 8 10 9 8 11 13 12 12 13 15 19 21 22 25 26 27 27 27 27 27 28 29 29 28 27 25 24 24 23 21 20 17 17 18 19 18 17 16 16 15 14 13 13 12 10 10 13 11 8
3 3 5 7 5 5 5 6 8 10 6 3 2 7 9 9 9 9 5 2 2 4 2 4 2 1 3 3 5 8 8 8 9 10 8 7 8 8 10 10 9 12 14 14 14 14 17 21 23 25 27 27 26 27 28 28 28 29 29 28 27 26 24 24 25 23 21 20 19 18 19 19 17 16 14 14 15 15 13 13 12 11 12 14 11 9
3 6 7 6 5 5 8 8 9 10 5 4 13 13 10 10 9 7 5 4 3 2 2 7 6 2 2 3 4 6 9 11 10 10 8 8 8 8 9 10 9 10 12 14 15 16 20 24 26 26 26 26 26 27 29 28 27 28 29 28 27 26 25 26 25 22 21 21 20 19 19 19 17 16 15 15 16 16 13 13 12 11 13 14 11 9
6 6 4 4 6 7 8 8 6 9 7 10 14 12 11 8 6 6 4 5 3 3 3 6 9 2 2 3 5 8 10 11 9 8 8 8 7 7 7 8 9 10 11 12 13 17 22 25 26 25 24 24 25 26 27 26 27 28 28 28 27 26 27 27 25 22 22 22 22 21 19 19 19 17 17 17 18 17 15 13 13 13 13 14 12 11
5 4 4 5 7 7 6 2 1 9 12 10 7 7 8 5 4 5 3 3 1 4 3 2 6 3 2 4 6 9 10 11 11 10 11 11 9 8 6 7 9 9 11 12 12 14 17 19 20 21 22 23 23 24 25 26 27 27 28 28 27 27 28 28 25 22 22 22 22 22 21 22 21 19 19 19 19 18 16 14 14 14 14 14 13 12
4 4 4 3 5 6 6 3 4 4 5 7 7 6 6 3 3 3 1 1 2 4 1 1 4 3 5 6 5 8 9 11 13 12 12 13 11 9 6 6 7 9 11 12 12 12 12 14 17 20 21 22 23 25 26 26 27 27 27 28 27 27 28 27 25 23 22 22 21 20 22 24 23 20 20 19 18 17 16 14 14 13 14 14 13 12
4 5 3 1 3 4 8 6 4 2 1 6 8 6 5 3 2 2 3 2 2 3 1 3 5 3 4 5 5 8 10 10 11 11 11 12 13 11 7 5 6 8 12 12 12 12 12 14 19 21 22 23 24 26 27 27 27 27 27 27 28 28 28 27 26 25 23 22 20 20 23 25 23 22 21 19 18 18 16 15 14 13 12 13 12 10
0 4 3 4 3 3 8 9 9 8 4 4 3 3 5 6 4 4 4 3 2 1 1 5 5 4 2 3 4 5 7 8 9 9 10 10 11 11 8 5 5 8 11 12 13 13 14 19 22 23 24 25 25 26 27 27 28 28 27 28 28 28 28 27 26 26 25 23 22 21 23 24 24 23 21 20 19 18 18 17 16 15 13 13 12 11
2 5 7 5 3 5 7 7 10 10 4 1 3 2 3 5 5 3 2 3 4 3 2 4 3 3 3 3 3 2 4 7 8 8 10 11 11 11 10 7 5 6 9 12 13 13 16 22 24 24 25 26 26 27 27 27 29 29 28 29 30 29 29 28 27 27 26 24 23 22 22 23 23 23 22 22 20 18 18 18 17 17 16 14 13 13
0 4 6 5 2 5 7 8 11 8 4 3 2 4 5 3 6 5 1 2 4 3 1 2 3 4 2 3 3 1 4 7 8 8 10 12 12 13 13 10 7 6 9 12 13 13 16 21 24 25 26 26 26 27 27 29 30 31 30 30 30 29 29 28 28 28 27 25 25 24 23 22 22 23 23 23 22 20 19 18 17 18 18 16 14 14
2 5 5 2 3 3 4 9 8 3 5 7 4 6 3 2 4 5 2 2 3 1 1 2 3 4 2 2 2 1 5 7 9 10 10 10 12 14 14 14 10 7 9 11 13 14 16 20 23 25 27 28 29 29 30 31 31 31 32 32 31 30 30 30 29 28 27 27 26 26 25 23 22 22 22 22 22 21 20 19 18 19 19 17 16 15
2 3 6 1 0 4 2 8 4 4 2 7 5 4 4 2 1 2 2 2 2 1 2 2 3 3 4 4 3 6 8 8 9 10 11 11 13 13 14 15 12 9 8 10 12 12 14 19 23 25 26 27 30 31 31 31 31 31 30 31 32 32 32 31 29 28 27 27 27 27 26 24 22 22 22 22 22 23 22 21 20 20 20 18 17 16
2 1 5 5 2 1 2 5 3 4 1 4 2 0 1 2 4 3 2 3 3 2 1 2 2 3 5 5 7 10 10 9 10 10 10 13 14 13 13 13 12 9 9 10 10 9 9 15 22 26 28 28 29 30 30 30 30 30 30 30 31 31 30 29 28 27 27 27 27 27 27 25 22 22 22 22 23 23 22 22 22 21 21 19 17 16
1 2 3 6 6 2 1 1 4 6 4 5 2 0 1 1 2 3 1 2 3 3 2 1 2 5 5 3 7 10 9 10 11 11 10 10 11 11 11 11 10 9 9 9 9 8 8 10 14 19 24 28 30 29 29 29 30 29 29 29 30 29 28 29 29 27 27 27 27 26 27 26 23 22 22 22 23 23 23 22 22 22 22 21 19 16
1 1 2 3 5 1 3 4 5 7 6 5 4 3 4 2 3 3 0 1 2 4 3 4 2 6 5 2 4 6 7 8 10 10 9 8 10 9 7 8 9 9 9 8 9 8 8 11 13 13 15 19 25 28 27 28 28 28 29 29 29 29 29 29 29 28 27 27 26 26 26 26 24 23 22 22 22 22 22 21 20 20 21 19 16 13
2 3 2 2 2 3 7 6 3 4 5 5 2 2 3 3 4 5 3 3 1 2 2 3 1 5 4 2 1 3 4 6 7 8 7 7 7 7 7 7 8 8 6 6 8 8 9 11 14 15 13 13 18 23 27 28 27 27 28 29 29 29 30 31 30 29 28 27 26 26 25 25 25 23 23 23 22 22 21 20 18 17 16 14 13 14
2 3 3 3 4 5 7 6 4 3 6 4 2 2 2 2 3 4 4 3 3 2 2 2 1 5 4 3 1 2 2 4 5 6 7 7 6 8 9 8 8 8 6 6 6 7 9 12 14 15 14 12 11 13 18 23 27 28 27 27 29 31 31 31 31 29 28 27 27 26 25 25 25 25 24 24 23 23 21 19 19 17 16 16 17 18
2 2 3 3 4 6 6 7 7 6 4 2 2 4 3 1 3 4 1 3 2 3 4 4 3 5 4 3 3 3 4 4 4 5 6 7 7 8 8 8 7 7 6 6 7 7 8 9 11 13 13 12 11 9 9 11 17 24 28 28 29 31 32 31 30 30 29 28 27 26 26 25 25 25 25 25 24 23 21 19 20 19 19 19 19 18
2 1 3 4 3 2 2 3 3 4 3 2 3 6 7 4 3 3 2 4 1 3 4 4 4 5 4 3 4 3 3 4 3 4 5 6 8 9 8 8 8 7 6 6 7 8 8 8 9 13 14 12 13 15 17 14 14 17 24 31 31 30 31 31 30 30 29 29 28 27 26 25 25 25 25 25 24 23 20 20 21 21 20 19 19 18
3 2 4 5 5 4 4 4 4 2 1 3 5 7 8 7 3 3 5 3 4 3 2 5 5 1 5 3 2 2 3 3 3 4 5 5 7 8 8 8 9 9 8 7 6 7 8 8 8 11 15 15 14 16 20 22 20 17 15 21 29 31 30 30 31 30 29 29 29 28 27 26 25 25 25 25 25 23 20 20 22 22 20 20 19 19
4 4 5 5 1 3 6 4 0 4 5 4 5 7 9 8 6 5 3 3 5 6 3 8 5 3 5 4 5 4 4 4 3 4 4 4 6 7 7 8 9 9 9 8 8 7 9 10 9 11 15 16 15 16 15 16 21 22 17 15 19 26 31 31 30 31 30 29 28 28 28 27 25 25 25 25 25 23 21 21 21 21 21 21 20 20
6 3 2 3 2 6 3 2 4 5 5 5 8 9 10 9 8 6 2 3 2 5 6 6 6 4 5 2 5 4 4 4 3 2 3 3 5 6 7 9 9 9 9 9 9 8 9 10 10 12 17 19 17 16 16 15 19 26 26 22 19 20 27 32 32 31 30 29 29 29 28 27 25 24 24 25 25 24 23 22 20 19 20 20 20 20
5 2 1 4 2 6 7 6 6 7 7 7 9 11 10 8 8 7 5 4 2 2 4 3 7 2 4 1 4 3 4 4 4 4 4 4 5 5 7 7 7 8 8 8 8 8 8 9 9 11 15 18 20 20 19 21 23 25 28 29 26 24 26 30 32 31 29 28 27 27 28 28 26 24 24 25 25 24 24 23 20 19 20 20 20 20
4 3 2 4 4 6 7 4 5 7 8 8 11 13 13 11 10 9 9 7 5 4 5 3 6 4 5 3 5 5 5 5 5 5 4 4 4 5 6 6 6 7 7 6 6 6 7 8 10 12 13 16 21 23 22 23 25 27 28 29 30 29 28 28 30 28 26 25 23 21 22 24 26 25 25 26 26 25 25 23 22 20 19 19 20 20
3 3 1 4 4 3 6 4 4 4 6 9 12 14 14 11 8 7 8 8 5 4 5 6 4 3 4 3 5 7 7 8 6 5 5 4 3 4 5 6 6 6 6 6 6 4 5 7 8 10 14 18 21 23 25 27 27 29 28 25 23 22 19 20 26 27 25 25 26 24 20 21 23 24 24 25 26 25 24 23 22 21 20 20 21 21
2 3 2 3 3 3 6 4 3 4 6 5 6 7 7 6 5 6 8 11 10 4 1 2 1 1 2 3 6 8 9 8 6 4 4 3 3 3 4 5 5 5 5 5 4 3 3 6 9 9 11 14 17 20 23 26 28 29 27 21 20 20 15 12 18 26 28 27 29 28 24 22 23 25 24 24 23 23 23 23 22 22 21 21 22 23
2 4 3 3 4 2 6 4 4 5 3 4 4 1 3 3 6 8 9 12 13 7 3 3 3 4 5 5 8 9 8 7 5 5 5 3 3 3 3 3 4 4 5 5 5 4 2 5 11 13 11 11 14 17 17 18 21 24 22 20 20 22 20 14 14 21 27 27 26 26 25 23 23 23 23 22 22 21 20 20 20 22 23 23 23 24
3 4 1 1 4 3 2 5 3 1 4 6 4 3 3 2 8 9 10 11 12 10 7 7 8 8 7 7 8 10 9 8 8 8 7 5 4 4 4 4 3 3 4 4 4 4 4 5 11 16 16 17 18 19 18 18 20 20 19 18 19 20 22 20 17 18 22 26 25 24 24 22 19 18 18 18 20 20 18 16 15 15 18 22 24 24
4 3 1 2 3 2 2 4 1 5 5 5 5 4 4 3 4 4 7 9 9 9 6 8 8 8 9 8 7 6 6 8 8 8 8 7 5 4 4 3 4 4 4 3 4 6 6 6 11 14 17 20 22 21 19 20 22 22 20 19 19 20 21 22 21 20 20 23 24 23 23 20 19 20 21 20 20 19 18 17 15 11 9 13 19 22
5 3 1 2 1 2 4 2 1 2 3 4 3 2 2 2 2 0 2 2 5 6 4 6 8 7 8 8 6 5 4 6 7 7 8 9 8 6 5 5 5 6 6 6 7 10 10 8 8 10 14 17 19 20 21 21 22 23 22 19 19 20 20 21 23 23 20 19 20 21 20 18 19 21 20 17 17 18 18 18 19 17 12 9 10 15
3 2 2 3 1 2 4 3 2 2 1 4 4 3 2 2 4 2 3 1 4 4 2 4 6 5 6 6 4 2 4 6 4 2 5 7 6 6 6 6 6 6 6 6 8 10 11 9 7 11 16 18 18 19 22 22 22 22 22 20 20 20 20 20 22 22 19 17 17 18 18 17 17 16 13 13 15 17 18 19 20 21 20 15 11 11
6 3 3 5 2 2 4 3 2 2 3 5 6 7 6 5 4 2 3 2 3 2 3 2 5 3 3 3 0 1 4 3 2 3 1 3 3 4 4 4 5 6 5 4 5 6 8 10 12 14 17 20 19 17 19 21 22 20 18 17 17 19 19 19 18 17 16 16 17 18 17 16 16 15 15 17 18 18 18 20 20 20 19 18 17 15
6 4 4 4 2 2 4 2 2 2 3 4 5 7 8 6 3 6 2 4 3 4 4 3 5 3 3 3 1 2 4 3 4 3 3 4 3 4 4 4 4 5 5 4 4 5 6 9 12 13 14 14 13 13 15 19 18 14 13 15 17 17 16 15 15 13 13 14 15 16 16 15 14 14 16 18 19 18 19 19 18 18 18 18 18 16
4 3 2 3 2 3 4 2 1 2 3 4 6 7 7 5 4 5 3 6 4 5 5 4 4 4 3 4 2 2 2 2 3 6 6 5 4 5 6 7 7 7 7 6 6 6 8 10 11 11 10 10 10 11 13 15 15 14 16 17 14 11 11 14 15 14 13 14 14 14 14 14 14 14 15 17 18 19 19 19 19 19 20 20 19 17
1 2 2 2 2 2 3 3 1 2 4 5 6 6 4 1 1 3 5 4 3 5 5 3 3 2 2 3 3 2 2 3 7 7 5 5 5 5 7 8 8 8 8 8 8 8 10 12 13 12 10 10 11 11 12 14 16 17 17 15 11 10 13 17 17 16 15 15 14 13 11 10 11 12 12 13 14 15 16 17 19 20 21 20 19 18
2 2 1 0 1 2 3 3 1 1 4 5 5 3 2 2 4 5 2 1 3 2 4 3 3 2 2 2 3 4 5 7 8 6 5 5 5 6 8 8 8 8 9 9 9 9 11 12 13 13 12 11 12 12 12 14 16 17 15 14 12 12 13 14 13 13 12 11 11 12 11 10 10 11 11 11 13 14 15 16 16 16 18 19 19 19
1 2 1 2 2 2 3 1 3 4 4 4 2 1 1 2 4 4 2 1 3 2 3 4 3 2 3 4 5 5 6 8 8 6 5 5 4 5 7 9 11 11 11 11 10 10 12 13 13 14 14 13 14 13 13 15 17 17 17 16 15 15 14 13 12 13 13 13 14 15 14 13 11 10 10 11 12 13 15 15 14 15 16 17 19 19
2 3 4 2 1 3 4 4 4 3 3 3 1 2 1 2 2 3 4 3 2 2 2 3 3 2 4 5 6 6 6 7 8 7 6 5 5 5 7 9 11 13 13 12 11 11 12 14 15 15 15 14 14 14 13 15 18 18 18 16 16 17 18 17 17 17 18 18 18 17 17 16 15 13 13 13 13 15 16 16 17 17 17 17 18 19
2 1 3 2 1 1 1 0 0 1 2 3 3 2 2 1 2 0 3 2 1 2 1 3 3 3 4 5 6 6 5 6 7 7 6 7 6 6 8 10 11 13 14 12 12 12 12 13 14 15 15 13 13 14 14 15 18 18 16 15 16 16 17 18 19 20 19 19 18 17 18 19 17 16 16 16 16 17 17 16 16 17 17 17 18 18
2 2 3 3 2 1 1 2 2 2 2 2 3 3 3 3 3 3 3 1 1 1 3 4 4 4 4 4 6 7 6 6 6 5 5 7 6 6 9 11 11 12 13 12 12 12 12 12 12 13 13 13 12 13 14 15 16 16 15 15 15 15 16 17 18 19 19 18 17 16 17 18 18 17 16 15 15 14 13 12 12 13 13 14 15 16
0 3 3 2 2 1 2 4 3 2 2 2 2 2 2 3 4 4 3 2 3 4 4 4 4 4 4 4 5 7 7 6 6 5 5 5 5 6 9 11 13 13 12 11 11 12 12 12 11 11 11 11 11 11 13 13 13 12 13 13 13 14 14 15 16 17 17 16 16 15 14 14 15 14 14 13 12 11 11 10 10 10 10 11 12 13
1 3 2 2 3 2 1 2 1 3 4 5 4 2 2 2 2 4 4 4 5 5 5 6 6 5 5 5 5 6 7 5 5 6 6 5 5 7 10 12 14 14 13 11 11 11 11 11 11 10 10 10 9 9 10 11 11 10 10 11 10 11 12 13 12 13 13 13 13 13 11 10 10 11 11 11 10 10 10 10 10 10 10 10 10 11
3 2 1 3 4 0 3 4 3 3 2 1 1 2 2 2 3 4 4 4 5 5 5 6 7 7 8 7 5 6 7 5 5 7 7 5 6 9 12 15 15 14 13 12 11 10 10 10 10 10 10 10 9 9 9 9 9 8 8 8 8 8 10 10 10 11 12 12 12 12 10 8 8 9 10 11 11 11 12 12 12 12 12 11 10 9
4 5 5 5 4 4 6 6 5 4 3 3 3 3 4 3 4 5 4 4 5 4 4 6 6 6 7 7 7 7 6 5 8 9 7 6 7 10 12 15 15 14 13 12 11 10 10 9 9 10 10 10 9 9 9 9 8 8 7 7 7 7 7 7 8 9 10 11 12 12 11 9 9 9 10 11 11 12 13 14 13 12 12 12 11 11
Wind_Direction
132 151 201 185 190 190 192 194 190 197 182 163 130 100 142 140 125 136 140 190 162 106 123 145 119 106 290 276 303 3 333 228 190 176 180 178 176 182 179 174 176 177 172 170 172 171 167 167 169 171 172 171 171 174 176 177 180 181 180 181 181 180 180 181 184 184 185 187 187 186 187 187 184 181 178 176 177 180 185 188 188 182 189 221 222 206
103 171 224 211 195 193 196 193 186 202 200 165 137 134 144 129 116 96 127 187 181 122 173 143 123 132 181 234 262 338 333 231 201 182 182 180 177 181 173 170 176 167 154 161 164 165 163 162 166 168 170 172 173 174 177 179 180 180 180 182 181 180 182 184 186 187 188 188 187 186 186 185 182 181 181 178 179 181 181 181 179 175 179 205 193 182
354 221 233 222 191 185 202 182 177 206 205 174 141 141 158 151 122 88 129 177 209 176 167 163 159 161 179 237 263 271 224 234 227 197 185 178 177 180 171 170 169 149 146 155 158 162 162 162 165 167 170 176 176 175 176 179 181 182 183 183 183 182 183 184 187 191 193 190 189 187 183 179 178 181 183 180 179 181 183 180 176 173 164 158 161 162
250 244 240 221 165 176 214 174 174 205 189 154 146 151 173 179 161 128 156 160 231 301 155 160 173 152 130 276 274 256 228 238 277 230 192 179 181 181 175 172 162 152 155 157 160 164 163 164 166 166 171 176 176 175 175 178 181 183 185 185 184 185 185 186 190 196 198 197 195 193 188 184 182 183 184 185 184 185 187 184 180 175 163 155 156 155
240 255 258 204 156 185 209 172 160 176 193 185 182 178 171 180 176 106 141 141 75 347 131 127 99 324 186 213 245 249 242 250 293 237 190 182 189 184 177 172 160 156 158 158 164 167 165 167 169 169 171 174 176 176 177 179 180 182 184 185 186 188 189 190 192 195 199 198 198 201 200 196 194 191 188 191 192 191 190 188 188 181 170 164 163 165
253 254 226 268 223 196 198 203 182 168 188 232 213 210 186 174 151 110 134 141 119 252 208 154 149 263 206 202 222 218 192 234 291 211 187 177 183 186 180 178 165 159 160 162 166 170 171 170 169 170 172 175 177 177 178 179 180 181 184 186 188 190 191 192 193 195 197 197 197 202 202 197 196 194 192 195 194 192 190 188 188 183 174 170 171 178
257 230 167 214 234 210 200 224 218 170 154 236 222 210 182 160 140 134 148 152 151 200 219 186 171 195 205 211 217 201 186 213 254 248 200 176 174 185 186 181 167 163 163 163 167 170 174 171 167 170 175 177 178 179 179 178 179 182 183 186 188 190 191 191 193 195 197 198 199 201 201 200 201 199 198 199 197 193 190 186 185 185 181 179 179 187
229 217 193 208 218 214 208 223 216 168 152 240 223 180 164 157 150 150 153 151 134 108 127 203 158 116 205 222 206 189 192 210 226 239 219 185 177 183 190 184 167 169 165 163 170 172 174 173 171 174 178 181 180 178 178 178 180 182 183 185 188 189 192 193 194 195 196 200 200 196 196 198 203 206 206 205 203 198 194 190 187 189 188 184 180 182
195 213 217 204 206 211 218 221 188 167 183 247 123 123 134 135 131 131 124 86 79 86 141 215 214 141 236 246 181 174 198 212 213 221 218 196 187 183 189 187 171 171 169 165 171 175 176 177 178 179 180 181 179 178 179 180 182 183 184 186 189 192 193 192 192 193 197 201 200 197 197 198 202 209 211 209 208 204 203 202 198 193 187 182 179 181
231 219 210 190 192 208 230 229 177 169 202 110 94 89 86 91 90 87 71 38 39 45 206 205 198 196 263 249 163 170 206 214 207 210 211 198 193 186 186 185 173 170 173 171 172 176 178 180 183 182 180 180 179 179 180 181 182 183 185 187 191 193 191 189 191 196 200 203 202 200 204 206 206 208 209 208 208 208 211 214 210 198 187 183 184 187
254 240 223 196 199 203 221 232 182 159 145 102 96 92 79 70 64 62 55 49 39 291 266 206 197 193 311 233 192 193 205 204 196 199 201 195 193 191 186 183 174 166 173 175 173 177 180 182 183 181 179 179 179 180 180 180 182 183 185 188 191 193 191 191 195 201 205 206 204 205 211 215 212 211 211 209 207 209 213 216 209 198 191 189 190 193
280 254 232 220 211 191 187 227 148 150 140 110 101 110 90 52 32 42 23 46 116 243 285 227 192 177 274 244 214 216 206 192 193 196 195 191 188 190 189 185 176 164 170 176 174 178 178 178 180 179 179 179 177 179 179 180 183 184 186 188 191 194 194 195 200 205 206 207 209 213 218 218 215 216 216 213 212 213 214 214 206 197 194 196 196 200
296 239 230 238 223 183 152 84 61 121 134 115 120 118 94 53 39 69 272 265 208 232 264 165 173 188 252 249 227 225 211 196 200 198 192 189 184 184 188 187 179 163 167 176 175 176 175 174 177 178 178 178 178 180 180 181 183 185 188 189 191 194 196 199 203 205 205 206 211 216 216 213 212 214 215 214 217 221 222 218 211 206 202 201 204 208
316 297 286 221 248 189 141 121 117 132 213 147 142 131 118 112 102 148 213 257 252 257 248 149 167 202 268 262 226 216 208 200 202 197 188 186 184 182 182 183 181 167 167 175 176 174 176 177 178 178 179 180 181 182 182 182 184 186 188 191 193 195 198 202 204 205 205 206 209 211 210 208 208 210 211 213 220 225 227 224 222 222 215 212 217 222
209 308 260 183 229 185 149 156 159 152 167 172 133 108 146 155 156 172 193 196 184 242 102 136 167 198 220 245 233 220 210 191 191 193 183 183 186 179 173 175 182 174 169 174 177 177 178 179 179 179 180 182 183 183 183 184 185 187 190 192 194 195 199 203 205 205 206 207 207 207 206 206 208 210 211 213 220 226 226 226 229 229 225 225 228 232
164 260 248 233 222 161 160 170 149 133 140 175 63 72 195 184 152 137 159 160 138 120 128 156 207 232 204 244 274 257 213 186 183 186 177 180 184 175 175 182 183 183 176 174 178 179 179 180 180 180 182 183 184 184 183 184 186 188 190 193 195 197 199 203 205 206 208 209 208 206 205 208 209 212 214 215 220 227 226 225 227 227 226 228 230 231
316 274 275 298 285 165 161 160 150 146 143 113 121 211 228 182 125 110 72 39 80 105 178 194 249 296 285 272 288 201 185 185 182 181 179 182 180 176 182 185 183 187 183 179 179 180 179 179 181 182 183 183 184 184 185 186 188 189 191 193 194 197 199 202 205 207 209 210 210 209 208 210 212 214 216 217 221 226 226 225 228 227 227 229 230 229
217 284 294 346 333 269 156 135 146 185 141 128 190 213 200 55 82 99 94 23 48 129 239 202 231 281 269 253 295 184 187 189 186 185 184 182 180 182 187 184 182 184 185 186 181 179 179 178 181 183 184 184 185 186 187 188 190 192 193 194 194 196 199 202 205 207 210 211 211 211 210 210 215 218 218 220 223 225 225 226 228 227 228 230 232 231
164 288 291 288 12 297 39 102 128 271 153 143 189 181 127 104 103 105 124 136 141 215 262 253 254 255 220 215 203 194 198 192 188 187 184 185 184 187 187 181 178 174 178 187 182 179 180 179 181 183 184 186 187 188 189 189 190 192 194 195 195 197 200 202 204 206 209 211 210 211 212 213 218 220 221 224 225 224 224 225 226 227 228 229 233 235
141 120 285 296 340 310 29 84 157 244 195 131 148 120 119 139 154 166 168 153 148 164 230 286 305 252 232 216 182 189 199 188 184 189 189 191 189 188 186 179 172 168 174 180 175 173 175 179 184 184 183 186 188 189 189 188 189 191 193 195 196 198 200 201 204 206 207 209 210 212 213 215 219 220 222 225 224 223 224 225 227 229 229 229 233 238
93 108 248 300 341 55 145 142 178 191 162 132 118 299 256 80 128 162 169 138 127 133 177 207 295 263 249 205 174 183 192 186 183 187 192 194 190 188 183 173 166 164 166 168 165 162 154 159 177 187 188 187 187 188 189 188 190 192 193 194 195 197 198 200 202 205 207 208 210 212 212 215 219 220 222 224 224 224 226 227 230 232 233 232 234 239
100 117 183 300 348 15 243 250 201 187 163 143 164 196 185 156 127 127 187 279 117 120 166 162 217 267 268 225 180 173 183 193 187 184 187 187 183 181 169 161 161 156 156 156 153 160 156 143 151 174 189 190 187 186 188 190 190 191 192 194 196 196 197 200 201 203 206 207 209 211 212 215 218 220 222 223 223 225 226 228 231 233 233 233 236 241
134 101 89 291 286 257 266 279 243 189 142 123 179 203 147 138 125 129 179 237 110 94 133 124 193 267 274 278 209 158 175 195 186 180 178 174 169 155 139 143 146 137 133 137 139 154 164 149 145 155 170 186 193 190 188 189 191 192 194 194 194 197 199 200 202 203 204 206 208 211 212 214 217 219 221 222 223 225 226 229 231 232 230 233 241 243
71 66 31 309 297 303 300 321 357 46 85 81 335 359 121 181 139 140 175 170 134 156 140 89 279 265 283 319 20 124 138 158 171 176 166 157 148 138 136 136 134 126 115 114 122 139 155 151 146 151 159 167 182 193 194 193 192 192 195 196 194 197 200 201 201 202 204 206 208 210 213 216 217 218 220 222 224 225 227 230 230 230 232 237 243 242
31 46 47 24 358 351 342 351 2 9 41 70 308 330 314 260 101 103 99 79 110 197 144 124 234 254 276 338 39 87 100 118 161 176 162 154 148 145 143 136 137 134 118 116 122 129 143 152 151 151 150 148 155 172 194 211 209 198 194 196 198 198 199 200 200 201 203 206 207 209 213 216 218 218 220 221 221 222 225 228 229 229 233 237 240 241
82 119 93 92 80 48 18 346 325 310 329 357 333 338 342 355 92 130 105 84 175 217 132 148 222 260 290 337 44 81 111 105 123 152 157 156 152 152 150 146 148 144 131 129 138 144 151 158 157 151 148 150 160 174 183 203 233 226 203 197 199 200 199 198 199 200 202 204 207 209 212 216 218 219 221 221 218 218 222 225 227 229 230 232 234 236
91 73 69 108 137 161 185 231 259 258 18 13 345 347 358 355 358 109 110 133 190 174 176 220 206 231 288 269 108 117 144 127 123 145 155 158 153 154 155 156 154 150 149 151 152 155 153 156 163 157 156 160 166 179 186 190 208 232 232 210 201 199 198 197 197 198 201 204 206 209 212 215 219 221 223 223 220 219 224 227 228 230 230 231 232 233
92 49 39 83 116 235 204 204 321 79 84 49 11 8 7 359 13 69 108 211 171 135 224 250 188 159 266 230 157 163 160 143 152 156 156 157 150 149 152 156 157 155 157 159 161 162 156 162 174 166 164 167 167 176 186 185 195 213 235 244 223 204 197 198 198 197 200 203 205 210 213 214 218 222 224 224 222 221 225 229 230 231 231 229 230 234
105 68 35 89 344 303 301 11 34 76 80 52 37 27 13 9 27 47 13 274 157 154 232 234 165 175 268 209 148 174 162 137 132 128 120 125 125 130 144 156 165 165 163 161 164 167 164 168 176 171 171 171 165 170 180 183 195 205 211 224 236 225 205 198 197 197 198 202 206 211 215 215 216 220 224 224 223 222 225 230 231 230 229 228 230 234
104 96 130 120 53 333 349 13 39 61 53 34 29 24 18 20 32 42 31 5 10 265 259 166 126 118 307 100 121 136 131 113 101 90 85 99 112 123 138 151 165 171 170 167 166 170 170 169 172 174 175 174 171 174 181 186 195 203 206 207 215 226 219 203 196 197 197 200 207 213 217 218 219 222 224 223 222 223 225 229 231 230 230 230 230 232
92 134 164 99 60 340 333 2 53 63 54 34 20 13 12 15 22 30 25 11 6 340 332 55 95 46 351 40 78 75 87 89 90 92 85 90 104 118 129 138 151 163 171 175 170 171 173 169 169 171 174 181 184 182 182 187 193 201 209 208 205 214 221 210 196 193 193 196 203 211 215 220 223 225 226 226 225 226 226 228 230 231 231 231 230 231
74 118 100 74 75 311 308 334 355 28 46 31 15 8 4 6 18 32 28 13 354 327 344 19 55 7 337 34 65 62 70 73 78 87 85 82 91 110 131 140 144 150 159 171 175 171 170 170 170 175 178 185 189 187 185 188 191 195 201 205 203 204 215 213 197 190 192 198 202 206 212 220 224 224 224 225 227 228 228 228 228 228 229 229 229 228
77 107 116 98 101 273 296 326 339 27 42 9 346 358 354 360 30 41 30 14 358 344 19 35 38 287 320 57 72 64 64 66 63 63 69 80 83 87 120 134 129 122 115 128 144 139 154 161 159 170 185 189 188 188 189 189 189 191 193 197 200 197 198 211 202 192 193 199 204 205 207 216 221 219 218 218 220 223 224 225 225 225 226 226 223 221
48 94 145 139 118 233 286 330 15 47 50 257 252 330 344 14 65 64 42 13 359 7 54 61 70 70 52 68 82 76 65 57 48 44 46 62 79 72 78 98 110 116 101 86 88 97 94 119 136 152 172 182 183 185 187 191 194 194 191 194 202 199 194 204 215 202 193 193 199 201 201 207 212 209 208 208 207 207 209 212 217 220 220 219 216 214
53 78 135 104 110 171 301 21 32 273 232 243 266 324 333 81 106 93 63 31 5 5 33 51 65 79 78 79 88 89 87 79 63 47 38 45 72 89 88 86 87 95 95 89 90 88 81 116 141 157 169 176 183 188 190 197 204 200 191 190 198 201 197 199 211 214 197 185 187 194 196 199 197 194 195 197 195 194 192 192 198 207 211 211 209 209
105 102 112 65 86 130 82 78 181 239 258 295 330 342 352 45 91 85 55 35 3 353 21 47 51 62 72 70 65 71 88 90 74 50 32 30 36 59 79 89 93 85 85 106 116 97 94 137 161 165 168 173 182 188 190 196 201 198 190 186 191 197 198 195 203 217 205 182 181 191 194 195 195 196 198 195 189 186 184 183 185 189 203 208 201 199
116 122 107 73 84 127 113 119 256 306 314 316 347 19 21 4 328 349 67 5 334 344 22 57 53 54 67 66 47 25 35 60 60 36 21 23 21 26 39 47 67 85 93 106 118 125 135 152 159 154 154 159 168 178 184 190 195 192 187 187 192 197 197 194 201 213 208 186 181 188 192 196 199 195 191 190 187 185 184 187 189 188 193 205 199 190
84 133 152 121 91 96 99 86 19 22 276 258 279 304 311 274 257 205 136 291 313 331 359 94 93 87 84 76 62 50 53 55 51 2 13 26 20 21 34 40 54 74 93 109 122 139 148 143 120 122 139 148 158 170 178 184 187 186 183 185 191 194 192 193 200 206 204 194 190 193 197 201 199 189 183 193 196 191 190 192 192 190 190 195 208 204
42 46 98 96 74 83 104 114 150 186 226 243 270 296 313 302 276 132 87 320 281 254 261 140 114 103 100 101 95 121 96 86 215 224 101 63 28 14 29 40 61 77 83 97 119 137 140 126 110 115 136 151 158 161 167 176 181 180 177 176 179 184 187 190 193 194 195 195 196 198 200 198 194 190 195 200 196 189 189 190 190 191 190 193 206 210
24 22 51 79 92 107 104 115 191 208 240 257 276 299 309 310 357 79 66 283 234 198 231 186 147 156 153 147 156 115 125 175 209 175 112 91 68 46 46 46 63 88 92 81 88 103 111 113 112 118 133 143 142 139 153 170 174 165 154 158 172 183 182 174 172 178 187 195 197 196 191 185 181 180 184 188 186 182 184 185 183 182 180 180 189 192
5 15 61 109 119 101 103 117 256 259 252 261 281 300 306 323 48 93 197 241 203 180 212 206 177 178 158 144 143 158 211 222 133 117 110 104 90 68 67 71 73 86 96 93 88 90 89 92 99 106 111 116 117 123 140 149 142 129 134 148 161 166 148 143 157 171 172 172 175 176 175 176 176 173 171 173 170 166 168 172 173 174 172 171 172 170
7 22 36 78 80 72 108 117 358 284 254 270 293 302 313 37 144 205 222 230 203 180 185 209 233 223 132 128 137 146 164 111 104 111 118 113 105 90 82 82 82 85 92 93 90 89 88 88 90 91 89 96 109 117 127 127 119 118 129 134 124 111 119 134 148 154 149 146 148 151 156 169 183 186 186 186 180 170 163 161 166 169 166 162 157 150
144 108 15 320 141 87 76 75 64 223 251 295 322 329 13 125 197 218 228 269 254 196 143 161 225 218 138 132 119 113 120 116 110 113 116 104 100 100 94 89 85 84 90 94 93 94 95 90 87 90 93 101 110 117 127 125 115 112 116 113 105 115 133 141 142 140 140 141 145 151 163 181 191 191 190 187 181 174 165 161 164 164 156 149 145 139
129 130 184 220 183 114 103 156 204 207 243 304 358 113 218 267 222 198 173 225 262 236 144 151 179 178 158 149 131 116 116 114 109 104 94 81 76 85 90 91 94 96 99 101 102 105 104 97 92 95 99 106 112 116 124 126 118 110 107 107 113 124 131 134 136 134 133 133 135 141 152 163 167 166 164 161 156 153 153 155 157 153 147 146 145 140
239 194 173 165 166 163 171 199 217 223 257 303 13 135 189 296 272 202 169 167 224 247 181 144 139 150 148 139 130 123 120 119 118 114 102 85 79 87 93 97 105 111 111 109 110 113 109 103 103 103 100 103 108 110 115 120 118 110 108 115 123 126 126 129 131 129 126 125 125 126 130 133 135 134 135 138 140 142 143 145 145 143 144 145 144 142
251 158 122 112 138 174 132 95 45 26 348 344 11 64 105 13 321 326 123 136 241 284 106 109 111 128 138 140 136 128 121 118 118 121 121 111 103 109 111 109 111 115 115 113 113 115 114 109 106 104 99 96 101 107 110 113 113 111 113 120 124 125 130 132 130 126 124 123 122 124 125 125 123 123 125 128 134 138 140 142 142 142 144 146 146 147
301 59 86 87 87 86 38 323 345 30 31 16 29 36 41 22 360 21 61 56 329 31 87 100 101 106 118 131 132 124 116 113 113 117 118 115 118 126 121 114 110 110 112 113 115 120 121 115 107 103 99 95 98 107 110 110 111 113 118 121 122 124 129 129 126 124 123 122 121 122 122 121 121 123 126 130 133 136 139 142 145 147 152 155 155 154
303 83 94 97 82 113 215 254 302 16 30 21 38 67 60 28 9 10 17 25 60 81 88 82 83 97 109 116 122 119 109 105 116 119 108 103 117 127 123 119 116 114 114 119 124 129 128 122 117 115 110 106 108 113 114 112 113 117 121 121 121 122 123 122 121 121 120 120 120 118 117 120 124 129 133 137 139 141 143 146 151 156 162 167 168 166
108 79 118 128 79 51 232 243 322 32 25 11 17 68 99 74 41 21 19 44 79 91 87 69 59 74 97 105 113 111 100 90 105 114 110 110 121 125 123 122 120 122 126 131 133 135 133 130 131 130 126 126 130 130 127 123 123 127 129 128 127 127 126 124 123 123 125 124 121 118 119 126 134 143 149 149 147 146 146 148 153 157 160 166 174 177
91 102 154 111 94 133 227 205 173 127 104 330 311 119 122 124 101 68 46 53 72 85 96 87 69 66 78 88 98 107 104 100 108 110 106 113 131 134 130 128 127 131 138 140 140 142 140 138 139 138 135 139 144 144 141 139 138 141 141 139 139 139 136 134 132 133 138 136 129 124 127 133 142 151 154 153 149 146 142 140 142 146 147 149 153 159
150 179 178 145 154 221 220 195 171 141 146 203 200 149 142 142 111 93 84 78 72 71 87 96 91 81 73 71 82 100 107 111 117 118 110 113 133 139 136 137 139 142 146 149 150 150 147 145 144 140 137 141 146 147 146 144 145 153 158 160 160 154 148 149 146 142 143 146 147 147 148 151 153 153 152 153 152 149 145 139 136 136 138 139 138 139